Time,TemperatureF,DewpointF,PressureIn,WindDirection,WindDirectionDegrees,WindSpeedMPH,WindSpeedGustMPH,Humidity,HourlyPrecipIn,Conditions,Clouds,dailyrainin,SoftwareType,DateUTC
2013-01-14 00:00:00,35.6,34.6,29.75,North,358,0.0,0.0,96,0.07,,,0.01,WeatherDisplay:10.37,2013-01-14 09:00:00,
2013-01-14 00:05:00,35.8,34.8,29.75,North,358,0.0,0.0,96,0.07,,,0.01,WeatherDisplay:10.37,2013-01-14 09:05:00,
2013-01-14 00:10:00,35.9,34.9,29.75,North,358,0.0,0.0,96,0.08,RA,,0.02,WeatherDisplay:10.37,2013-01-14 09:10:00,
2013-01-14 00:15:00,35.9,34.9,29.75,North,358,0.0,0.0,96,0.07,RA,,0.02,WeatherDisplay:10.37,2013-01-14 09:15:00,
2013-01-14 00:20:00,35.9,34.9,29.75,North,358,0.0,0.0,96,0.08,RA,,0.03,WeatherDisplay:10.37,2013-01-14 09:20:00,
2013-01-14 00:25:00,35.7,34.7,29.75,North,358,0.0,0.0,96,0.07,RA,,0.03,WeatherDisplay:10.37,2013-01-14 09:25:00,
2013-01-14 00:30:00,35.6,34.6,29.75,North,358,0.0,0.0,96,0.06,,,0.03,WeatherDisplay:10.37,2013-01-14 09:30:00,
2013-01-14 00:35:00,35.6,34.6,29.75,North,358,0.0,0.0,96,0.07,RA,,0.04,WeatherDisplay:10.37,2013-01-14 09:35:00,
2013-01-14 00:40:00,35.6,34.6,29.74,North,358,0.0,0.0,96,0.06,RA,,0.04,WeatherDisplay:10.37,2013-01-14 09:40:00,
2013-01-14 00:45:00,35.6,34.6,29.74,North,358,0.0,0.0,96,0.06,,,0.05,WeatherDisplay:10.37,2013-01-14 09:45:00,
2013-01-14 00:50:00,35.7,34.7,29.74,North,358,0.0,0.0,96,0.06,RA,,0.05,WeatherDisplay:10.37,2013-01-14 09:50:00,
2013-01-14 00:55:00,35.7,34.7,29.74,North,358,0.0,0.0,96,0.05,RA,,0.05,WeatherDisplay:10.37,2013-01-14 09:55:00,
2013-01-14 01:00:00,35.6,34.6,29.73,North,358,0.0,0.0,96,0.05,CLR,,0.05,WeatherDisplay:10.37,2013-01-14 10:00:00,
2013-01-14 01:05:00,35.5,34.5,29.73,North,358,0.0,0.0,96,0.05,RA,,0.06,WeatherDisplay:10.37,2013-01-14 10:05:00,
2013-01-14 01:10:00,35.5,34.5,29.73,North,358,0.0,0.0,96,0.04,RA,,0.06,WeatherDisplay:10.37,2013-01-14 10:10:00,
2013-01-14 01:15:00,35.8,34.8,29.73,North,358,0.0,0.0,96,0.05,RA,,0.07,WeatherDisplay:10.37,2013-01-14 10:15:00,
2013-01-14 01:20:00,35.6,34.6,29.73,North,358,0.0,0.0,96,0.04,RA,,0.07,WeatherDisplay:10.37,2013-01-14 10:20:00,
2013-01-14 01:25:00,35.4,34.4,29.73,North,358,0.0,0.0,96,0.04,,,0.07,WeatherDisplay:10.37,2013-01-14 10:25:00,
2013-01-14 01:30:00,35.3,34.3,29.73,North,358,0.0,0.0,96,0.05,RA,,0.08,WeatherDisplay:10.37,2013-01-14 10:30:00,
2013-01-14 01:35:00,35.6,34.6,29.73,North,358,0.0,0.0,96,0.05,RA,,0.09,WeatherDisplay:10.37,2013-01-14 10:35:00,
2013-01-14 01:40:00,35.7,34.7,29.73,North,358,0.0,0.0,96,0.05,RA,,0.09,WeatherDisplay:10.37,2013-01-14 10:40:00,
2013-01-14 01:45:00,35.5,34.5,29.73,North,358,0.0,0.0,96,0.06,RA,,0.10,WeatherDisplay:10.37,2013-01-14 10:45:00,
2013-01-14 01:50:00,35.4,34.4,29.73,North,358,0.0,0.0,96,0.06,RA,,0.11,WeatherDisplay:10.37,2013-01-14 10:50:00,
2013-01-14 01:55:00,35.2,34.2,29.73,North,358,0.0,0.0,96,0.06,RA,,0.11,WeatherDisplay:10.37,2013-01-14 10:55:00,
2013-01-14 02:00:00,35.1,34.1,29.73,North,358,0.0,0.0,96,0.07,RA,,0.12,WeatherDisplay:10.37,2013-01-14 11:00:00,
2013-01-14 02:05:00,35.0,34.0,29.72,North,358,0.0,0.0,96,0.07,RA,,0.13,WeatherDisplay:10.37,2013-01-14 11:05:00,
2013-01-14 02:10:00,34.8,33.8,29.72,North,358,0.0,0.0,96,0.07,RA,,0.13,WeatherDisplay:10.37,2013-01-14 11:10:00,
2013-01-14 02:15:00,34.6,33.6,29.72,North,358,0.0,0.0,96,0.07,RA,,0.14,WeatherDisplay:10.37,2013-01-14 11:15:00,
2013-01-14 02:20:00,34.5,33.5,29.71,North,358,0.0,0.0,96,0.08,RA,,0.15,WeatherDisplay:10.37,2013-01-14 11:20:00,
2013-01-14 02:25:00,34.5,33.5,29.71,North,358,0.0,0.0,96,0.08,RA,,0.15,WeatherDisplay:10.37,2013-01-14 11:25:00,
2013-01-14 02:30:00,34.5,33.5,29.71,North,358,0.0,0.0,96,0.08,RA,,0.16,WeatherDisplay:10.37,2013-01-14 11:30:00,
2013-01-14 02:35:00,34.7,33.7,29.70,North,358,0.0,0.0,96,0.07,RA,,0.16,WeatherDisplay:10.37,2013-01-14 11:35:00,
2013-01-14 02:40:00,34.9,33.9,29.70,North,358,0.0,0.0,96,0.08,RA,,0.17,WeatherDisplay:10.37,2013-01-14 11:40:00,
2013-01-14 02:45:00,35.0,34.0,29.70,North,358,0.0,0.0,96,0.07,RA,,0.17,WeatherDisplay:10.37,2013-01-14 11:45:00,
2013-01-14 02:50:00,35.1,34.1,29.70,North,358,0.0,0.0,96,0.06,,,0.18,WeatherDisplay:10.37,2013-01-14 11:50:00,
2013-01-14 02:55:00,35.2,34.2,29.70,North,358,0.0,0.0,96,0.07,RA,,0.18,WeatherDisplay:10.37,2013-01-14 11:55:00,
2013-01-14 03:00:00,35.3,34.3,29.70,North,358,0.0,0.0,96,0.06,RA,,0.18,WeatherDisplay:10.37,2013-01-14 12:00:00,
2013-01-14 03:05:00,35.4,34.4,29.70,North,358,0.0,0.0,96,0.06,RA,,0.19,WeatherDisplay:10.37,2013-01-14 12:05:00,
2013-01-14 03:10:00,35.5,34.5,29.70,North,358,0.0,0.0,96,0.06,RA,,0.19,WeatherDisplay:10.37,2013-01-14 12:10:00,
2013-01-14 03:15:00,35.5,34.5,29.69,North,358,0.0,0.0,96,0.05,CLR,,0.19,WeatherDisplay:10.37,2013-01-14 12:15:00,
2013-01-14 03:20:00,35.5,34.5,29.69,North,358,0.0,0.0,96,0.04,CLR,,0.20,WeatherDisplay:10.37,2013-01-14 12:20:00,
2013-01-14 03:25:00,35.6,34.6,29.68,North,358,0.0,0.0,96,0.05,RA,,0.20,WeatherDisplay:10.37,2013-01-14 12:25:00,
2013-01-14 03:30:00,35.6,34.6,29.68,North,358,0.0,0.0,96,0.04,RA,,0.20,WeatherDisplay:10.37,2013-01-14 12:30:00,
2013-01-14 03:35:00,35.5,34.5,29.68,North,358,0.0,0.0,96,0.05,RA,,0.21,WeatherDisplay:10.37,2013-01-14 12:35:00,
2013-01-14 03:40:00,35.4,34.4,29.68,North,358,0.0,0.0,96,0.04,RA,,0.21,WeatherDisplay:10.37,2013-01-14 12:40:00,
2013-01-14 03:45:00,35.5,34.5,29.67,North,358,0.0,0.0,96,0.05,RA,,0.22,WeatherDisplay:10.37,2013-01-14 12:45:00,
2013-01-14 03:50:00,35.6,34.6,29.67,North,358,0.0,0.0,96,0.05,RA,,0.22,WeatherDisplay:10.37,2013-01-14 12:50:00,
2013-01-14 03:55:00,35.7,34.7,29.67,North,358,0.0,0.0,96,0.04,,,0.22,WeatherDisplay:10.37,2013-01-14 12:55:00,
2013-01-14 04:00:00,35.8,34.8,29.67,North,358,0.0,0.0,96,0.05,RA,,0.23,WeatherDisplay:10.37,2013-01-14 13:00:00,
2013-01-14 04:05:00,35.9,34.9,29.67,North,358,0.0,0.0,96,0.04,RA,,0.23,WeatherDisplay:10.37,2013-01-14 13:05:00,
2013-01-14 04:10:00,35.9,34.9,29.67,North,358,0.0,0.0,96,0.05,RA,,0.24,WeatherDisplay:10.37,2013-01-14 13:10:00,
2013-01-14 04:15:00,36.0,35.0,29.67,North,358,0.0,0.0,96,0.05,RA,,0.24,WeatherDisplay:10.37,2013-01-14 13:15:00,
2013-01-14 04:20:00,36.0,35.0,29.67,North,358,0.0,0.0,96,0.06,RA,,0.25,WeatherDisplay:10.37,2013-01-14 13:20:00,
2013-01-14 04:25:00,35.9,34.9,29.66,North,358,0.0,0.0,96,0.05,RA,,0.25,WeatherDisplay:10.37,2013-01-14 13:25:00,
2013-01-14 04:30:00,36.0,35.0,29.66,North,358,0.0,0.0,96,0.05,CLR,,0.26,WeatherDisplay:10.37,2013-01-14 13:30:00,
2013-01-14 04:35:00,36.0,35.0,29.66,North,358,0.0,0.0,96,0.05,RA,,0.26,WeatherDisplay:10.37,2013-01-14 13:35:00,
2013-01-14 04:40:00,35.9,34.9,29.66,North,358,0.0,0.0,96,0.06,RA,,0.27,WeatherDisplay:10.37,2013-01-14 13:40:00,
2013-01-14 04:45:00,35.7,34.7,29.66,North,358,0.0,0.0,96,0.05,RA,,0.27,WeatherDisplay:10.37,2013-01-14 13:45:00,
2013-01-14 04:50:00,35.6,34.6,29.66,North,358,0.0,0.0,96,0.06,RA,,0.28,WeatherDisplay:10.37,2013-01-14 13:50:00,
2013-01-14 04:55:00,35.5,34.5,29.67,North,358,0.0,0.0,96,0.07,RA,,0.29,WeatherDisplay:10.37,2013-01-14 13:55:00,
2013-01-14 05:00:00,35.4,34.4,29.67,North,358,0.0,0.0,96,0.06,RA,,0.30,WeatherDisplay:10.37,2013-01-14 14:00:00,
2013-01-14 05:05:00,35.2,34.2,29.67,North,358,0.0,0.0,96,0.07,RA,,0.30,WeatherDisplay:10.37,2013-01-14 14:05:00,
2013-01-14 05:10:00,35.0,34.0,29.67,North,358,0.0,0.0,96,0.07,RA,,0.31,WeatherDisplay:10.37,2013-01-14 14:10:00,
2013-01-14 05:15:00,34.8,33.8,29.66,North,358,0.0,0.0,96,0.07,RA,,0.31,WeatherDisplay:10.37,2013-01-14 14:15:00,
2013-01-14 05:20:00,34.7,33.7,29.66,North,358,0.0,0.0,96,0.07,RA,,0.32,WeatherDisplay:10.37,2013-01-14 14:20:00,
2013-01-14 05:25:00,35.0,34.0,29.65,North,358,0.0,0.0,96,0.08,RA,,0.33,WeatherDisplay:10.37,2013-01-14 14:25:00,
2013-01-14 05:30:00,35.4,34.4,29.65,North,358,0.0,0.0,96,0.09,RA,,0.34,WeatherDisplay:10.37,2013-01-14 14:30:00,
2013-01-14 05:35:00,35.6,34.6,29.64,North,358,0.0,0.0,96,0.08,RA,,0.34,WeatherDisplay:10.37,2013-01-14 14:35:00,
2013-01-14 05:40:00,35.5,34.5,29.65,North,358,0.0,0.0,96,0.08,RA,,0.35,WeatherDisplay:10.37,2013-01-14 14:40:00,
2013-01-14 05:45:00,35.3,34.3,29.65,North,358,0.0,0.0,96,0.08,RA,,0.35,WeatherDisplay:10.37,2013-01-14 14:45:00,
2013-01-14 05:50:00,35.2,34.2,29.65,North,358,0.0,0.0,96,0.08,RA,,0.36,WeatherDisplay:10.37,2013-01-14 14:50:00,
2013-01-14 05:55:00,35.1,34.1,29.64,North,358,0.0,0.0,96,0.07,RA,,0.36,WeatherDisplay:10.37,2013-01-14 14:55:00,
2013-01-14 06:00:00,35.3,34.3,29.65,North,358,0.0,0.0,96,0.08,RA,,0.37,WeatherDisplay:10.37,2013-01-14 15:00:00,
2013-01-14 06:05:00,35.7,34.7,29.65,North,358,0.0,0.0,96,0.07,RA,,0.38,WeatherDisplay:10.37,2013-01-14 15:05:00,
2013-01-14 06:10:00,35.9,34.9,29.64,North,358,0.0,0.0,96,0.07,RA,,0.38,WeatherDisplay:10.37,2013-01-14 15:10:00,
2013-01-14 06:15:00,36.0,35.0,29.65,North,358,0.0,0.0,96,0.08,RA,,0.39,WeatherDisplay:10.37,2013-01-14 15:15:00,
2013-01-14 06:20:00,36.3,35.3,29.64,North,358,0.0,0.0,96,0.07,RA,,0.40,WeatherDisplay:10.37,2013-01-14 15:20:00,
2013-01-14 06:25:00,36.3,35.3,29.64,North,358,0.0,0.0,96,0.07,RA,,0.40,WeatherDisplay:10.37,2013-01-14 15:25:00,
2013-01-14 06:30:00,36.2,35.2,29.65,North,358,0.0,0.0,96,0.06,RA,,0.40,WeatherDisplay:10.37,2013-01-14 15:30:00,
2013-01-14 06:35:00,35.9,34.9,29.65,North,358,0.0,0.0,96,0.07,RA,,0.41,WeatherDisplay:10.37,2013-01-14 15:35:00,
2013-01-14 06:40:00,35.7,34.7,29.64,North,358,0.0,0.0,96,0.07,RA,,0.42,WeatherDisplay:10.37,2013-01-14 15:40:00,
2013-01-14 06:45:00,35.7,34.7,29.63,North,358,0.0,0.0,96,0.07,RA,,0.42,WeatherDisplay:10.37,2013-01-14 15:45:00,
2013-01-14 06:50:00,35.6,34.6,29.63,North,358,0.0,0.0,96,0.07,RA,,0.43,WeatherDisplay:10.37,2013-01-14 15:50:00,
2013-01-14 06:55:00,35.5,34.5,29.63,North,358,0.0,0.0,96,0.07,RA,,0.43,WeatherDisplay:10.37,2013-01-14 15:55:00,
2013-01-14 07:00:00,35.4,34.4,29.62,North,358,0.0,0.0,96,0.06,,,0.43,WeatherDisplay:10.37,2013-01-14 16:00:00,
2013-01-14 07:05:00,35.4,34.4,29.60,North,358,0.0,0.0,96,0.06,CLR,,0.43,WeatherDisplay:10.37,2013-01-14 16:05:00,
2013-01-14 07:10:00,35.2,34.2,29.60,North,358,0.0,0.0,96,0.05,CLR,,0.43,WeatherDisplay:10.37,2013-01-14 16:10:00,
2013-01-14 07:15:00,35.2,34.2,29.62,North,358,0.0,0.0,96,0.05,RA,,0.44,WeatherDisplay:10.37,2013-01-14 16:15:00,
2013-01-14 07:20:00,35.3,34.3,29.61,North,358,0.0,0.0,96,0.05,RA,,0.44,WeatherDisplay:10.37,2013-01-14 16:20:00,
2013-01-14 07:25:00,35.4,34.4,29.61,North,358,0.0,0.0,96,0.04,CLR,,0.44,WeatherDisplay:10.37,2013-01-14 16:25:00,
2013-01-14 07:30:00,35.7,34.7,29.62,North,358,0.0,0.0,96,0.04,CLR,,0.44,WeatherDisplay:10.37,2013-01-14 16:30:00,
2013-01-14 07:35:00,35.7,34.7,29.63,North,358,0.0,0.0,96,0.03,CLR,,0.45,WeatherDisplay:10.37,2013-01-14 16:35:00,
2013-01-14 07:40:00,35.8,34.8,29.64,North,358,0.0,0.0,96,0.03,RA,,0.45,WeatherDisplay:10.37,2013-01-14 16:40:00,
2013-01-14 07:45:00,36.2,35.2,29.65,North,358,0.0,0.0,96,0.03,RA,,0.46,WeatherDisplay:10.37,2013-01-14 16:45:00,
2013-01-14 07:50:00,36.4,35.4,29.65,North,358,0.0,0.0,96,0.04,RA,,0.47,WeatherDisplay:10.37,2013-01-14 16:50:00,
2013-01-14 07:55:00,36.2,35.2,29.65,North,358,0.0,0.0,96,0.04,RA,,0.47,WeatherDisplay:10.37,2013-01-14 16:55:00,
2013-01-14 08:00:00,36.2,35.2,29.65,North,358,0.0,0.0,96,0.05,RA,,0.48,WeatherDisplay:10.37,2013-01-14 17:00:00,
2013-01-14 08:05:00,36.0,35.0,29.64,North,358,0.0,0.0,96,0.05,RA,,0.48,WeatherDisplay:10.37,2013-01-14 17:05:00,
2013-01-14 08:10:00,35.6,34.6,29.64,North,358,0.0,0.0,96,0.05,CLR,,0.48,WeatherDisplay:10.37,2013-01-14 17:10:00,
2013-01-14 08:15:00,35.4,34.4,29.64,North,358,0.0,0.0,96,0.05,RA,,0.49,WeatherDisplay:10.37,2013-01-14 17:15:00,
2013-01-14 08:20:00,35.3,34.3,29.65,North,358,0.0,0.0,96,0.05,RA,,0.49,WeatherDisplay:10.37,2013-01-14 17:20:00,
2013-01-14 08:25:00,35.3,34.3,29.65,North,358,0.0,0.0,96,0.05,,,0.49,WeatherDisplay:10.37,2013-01-14 17:25:00,
2013-01-14 08:30:00,35.6,34.6,29.65,North,358,0.0,0.0,96,0.05,CLR,,0.49,WeatherDisplay:10.37,2013-01-14 17:30:00,
2013-01-14 08:35:00,35.6,34.6,29.65,North,358,0.0,0.0,96,0.05,CLR,,0.49,WeatherDisplay:10.37,2013-01-14 17:35:00,
2013-01-14 08:40:00,35.7,34.7,29.66,North,358,0.0,0.0,96,0.04,CLR,,0.49,WeatherDisplay:10.37,2013-01-14 17:40:00,
2013-01-14 08:45:00,35.7,34.7,29.67,North,358,0.0,0.0,96,0.04,CLR,,0.49,WeatherDisplay:10.37,2013-01-14 17:45:00,
2013-01-14 08:50:00,35.6,34.6,29.67,North,358,0.0,0.0,96,0.03,RA,,0.50,WeatherDisplay:10.37,2013-01-14 17:50:00,
2013-01-14 08:55:00,35.6,34.6,29.67,North,358,0.0,0.0,96,0.03,RA,,0.50,WeatherDisplay:10.37,2013-01-14 17:55:00,
2013-01-14 09:00:00,35.7,34.7,29.66,North,358,0.0,0.0,96,0.02,CLR,,0.50,WeatherDisplay:10.37,2013-01-14 18:00:00,
2013-01-14 09:05:00,35.7,34.7,29.66,North,358,0.0,0.0,96,0.02,CLR,,0.50,WeatherDisplay:10.37,2013-01-14 18:05:00,
2013-01-14 09:10:00,35.8,34.8,29.65,North,358,0.0,0.0,96,0.02,CLR,,0.50,WeatherDisplay:10.37,2013-01-14 18:10:00,
2013-01-14 09:15:00,35.9,34.9,29.64,North,358,0.0,0.0,96,0.02,RA,,0.51,WeatherDisplay:10.37,2013-01-14 18:15:00,
2013-01-14 09:20:00,35.9,34.9,29.65,North,358,0.0,0.0,96,0.02,RA,,0.51,WeatherDisplay:10.37,2013-01-14 18:20:00,
2013-01-14 09:25:00,35.9,34.9,29.66,North,358,0.0,0.0,96,0.02,,,0.51,WeatherDisplay:10.37,2013-01-14 18:25:00,
2013-01-14 09:30:00,35.9,34.9,29.66,North,358,0.0,0.0,96,0.02,CLR,,0.51,WeatherDisplay:10.37,2013-01-14 18:30:00,
2013-01-14 09:35:00,36.0,35.0,29.67,North,358,0.0,0.0,96,0.02,CLR,,0.51,WeatherDisplay:10.37,2013-01-14 18:35:00,
2013-01-14 09:40:00,36.2,35.2,29.67,North,358,0.0,0.0,96,0.02,CLR,,0.51,WeatherDisplay:10.37,2013-01-14 18:40:00,
2013-01-14 09:45:00,36.2,35.2,29.67,North,358,0.0,0.0,96,0.02,CLR,,0.51,WeatherDisplay:10.37,2013-01-14 18:45:00,
2013-01-14 09:50:00,36.3,35.3,29.67,North,358,0.0,0.0,96,0.01,CLR,,0.51,WeatherDisplay:10.37,2013-01-14 18:50:00,
2013-01-14 09:55:00,36.5,35.5,29.66,North,358,0.0,0.0,96,0.02,RA,,0.52,WeatherDisplay:10.37,2013-01-14 18:55:00,
2013-01-14 10:00:00,36.6,35.6,29.67,North,358,0.0,0.0,96,0.02,RA,,0.52,WeatherDisplay:10.37,2013-01-14 19:00:00,
2013-01-14 10:05:00,37.1,36.3,29.67,North,358,0.0,0.0,97,0.02,,,0.52,WeatherDisplay:10.37,2013-01-14 19:05:00,
2013-01-14 10:10:00,38.2,37.2,29.67,North,358,0.0,0.0,96,0.03,RA,,0.53,WeatherDisplay:10.37,2013-01-14 19:10:00,
2013-01-14 10:15:00,38.6,37.6,29.68,North,358,0.0,0.0,96,0.02,RA,,0.53,WeatherDisplay:10.37,2013-01-14 19:15:00,
2013-01-14 10:20:00,38.8,38.0,29.68,North,358,0.0,0.0,97,0.03,RA,,0.54,WeatherDisplay:10.37,2013-01-14 19:20:00,
2013-01-14 10:25:00,38.8,38.0,29.67,North,358,0.0,0.0,97,0.03,RA,,0.55,WeatherDisplay:10.37,2013-01-14 19:25:00,
2013-01-14 10:30:00,38.9,38.1,29.67,North,358,0.0,0.0,97,0.05,RA,,0.56,WeatherDisplay:10.37,2013-01-14 19:30:00,
2013-01-14 10:35:00,38.6,37.6,29.65,North,358,0.0,0.0,96,0.05,RA,,0.57,WeatherDisplay:10.37,2013-01-14 19:35:00,
2013-01-14 10:40:00,38.7,37.7,29.67,North,358,0.0,0.0,96,0.07,RA,,0.58,WeatherDisplay:10.37,2013-01-14 19:40:00,
2013-01-14 10:45:00,38.8,37.8,29.66,North,358,0.0,0.0,96,0.08,RA,,0.59,WeatherDisplay:10.37,2013-01-14 19:45:00,
2013-01-14 10:50:00,38.8,37.8,29.66,North,358,0.0,0.0,96,0.08,RA,,0.60,WeatherDisplay:10.37,2013-01-14 19:50:00,
2013-01-14 10:55:00,39.0,38.0,29.67,North,358,0.0,0.0,96,0.08,RA,,0.60,WeatherDisplay:10.37,2013-01-14 19:55:00,
2013-01-14 11:00:00,39.0,38.0,29.67,North,358,0.0,0.0,96,0.09,RA,,0.61,WeatherDisplay:10.37,2013-01-14 20:00:00,
2013-01-14 11:05:00,38.9,37.9,29.67,North,358,0.0,0.0,96,0.09,RA,,0.61,WeatherDisplay:10.37,2013-01-14 20:05:00,
2013-01-14 11:10:00,38.7,37.4,29.67,North,358,0.0,0.0,95,0.09,RA,,0.62,WeatherDisplay:10.37,2013-01-14 20:10:00,
2013-01-14 11:15:00,38.6,37.3,29.68,North,358,0.0,0.0,95,0.09,RA,,0.62,WeatherDisplay:10.37,2013-01-14 20:15:00,
2013-01-14 11:20:00,38.6,37.3,29.68,North,358,0.0,0.0,95,0.08,,,0.62,WeatherDisplay:10.37,2013-01-14 20:20:00,
2013-01-14 11:25:00,38.6,37.3,29.69,North,358,0.0,0.0,95,0.09,RA,,0.63,WeatherDisplay:10.37,2013-01-14 20:25:00,
2013-01-14 11:30:00,38.7,37.4,29.70,North,356,0.0,0.0,95,0.07,RA,,0.63,WeatherDisplay:10.37,2013-01-14 20:30:00,
2013-01-14 11:35:00,38.7,37.4,29.70,North,356,0.0,0.0,95,0.07,,,0.63,WeatherDisplay:10.37,2013-01-14 20:35:00,
2013-01-14 11:40:00,38.6,37.3,29.69,North,357,0.0,0.0,95,0.05,CLR,,0.64,WeatherDisplay:10.37,2013-01-14 20:40:00,
2013-01-14 11:45:00,38.4,37.1,29.69,North,357,0.0,0.0,95,0.05,RA,,0.64,WeatherDisplay:10.37,2013-01-14 20:45:00,
2013-01-14 11:50:00,38.4,37.1,29.69,North,356,0.0,0.0,95,0.05,RA,,0.64,WeatherDisplay:10.37,2013-01-14 20:50:00,
2013-01-14 11:55:00,38.3,37.0,29.69,North,358,0.0,0.0,95,0.04,CLR,,0.64,WeatherDisplay:10.37,2013-01-14 20:55:00,
2013-01-14 12:00:00,38.3,37.0,29.69,North,358,0.0,0.0,95,0.04,RA,,0.65,WeatherDisplay:10.37,2013-01-14 21:00:00,
2013-01-14 12:05:00,38.4,37.4,29.68,North,358,0.0,0.0,96,0.04,RA,,0.65,WeatherDisplay:10.37,2013-01-14 21:05:00,
2013-01-14 12:10:00,38.4,37.4,29.68,North,357,0.0,0.0,96,0.03,CLR,,0.65,WeatherDisplay:10.37,2013-01-14 21:10:00,
2013-01-14 12:15:00,38.4,37.1,29.69,North,356,0.0,0.0,95,0.03,CLR,,0.65,WeatherDisplay:10.37,2013-01-14 21:15:00,
2013-01-14 12:20:00,38.3,37.0,29.70,North,356,0.0,0.0,95,0.03,CLR,,0.65,WeatherDisplay:10.37,2013-01-14 21:20:00,
2013-01-14 12:25:00,38.1,36.8,29.70,North,356,0.0,0.0,95,0.02,CLR,,0.65,WeatherDisplay:10.37,2013-01-14 21:25:00,
2013-01-14 12:30:00,38.1,36.8,29.70,North,356,0.0,0.0,95,0.02,CLR,,0.65,WeatherDisplay:10.37,2013-01-14 21:30:00,
2013-01-14 12:35:00,38.1,36.8,29.70,North,355,0.0,0.0,95,0.02,CLR,,0.65,WeatherDisplay:10.37,2013-01-14 21:35:00,
2013-01-14 12:40:00,38.1,36.8,29.70,North,355,0.0,0.0,95,0.03,RA,,0.66,WeatherDisplay:10.37,2013-01-14 21:40:00,
2013-01-14 12:45:00,38.1,36.8,29.72,North,356,0.0,0.0,95,0.02,RA,,0.66,WeatherDisplay:10.37,2013-01-14 21:45:00,
2013-01-14 12:50:00,38.1,36.8,29.72,North,356,0.0,0.0,95,0.02,,,0.66,WeatherDisplay:10.37,2013-01-14 21:50:00,
2013-01-14 12:55:00,38.1,36.8,29.72,North,356,0.0,0.0,95,0.02,CLR,,0.66,WeatherDisplay:10.37,2013-01-14 21:55:00,
2013-01-14 13:00:00,38.1,36.8,29.73,North,355,0.0,0.0,95,0.01,CLR,,0.66,WeatherDisplay:10.37,2013-01-14 22:00:00,
2013-01-14 13:05:00,38.1,36.8,29.73,North,355,0.0,0.0,95,0.01,CLR,,0.66,WeatherDisplay:10.37,2013-01-14 22:05:00,
2013-01-14 13:10:00,38.1,36.8,29.73,North,356,0.0,0.0,95,0.01,CLR,,0.66,WeatherDisplay:10.37,2013-01-14 22:10:00,
2013-01-14 13:15:00,38.0,36.7,29.72,North,355,0.0,0.0,95,0.01,CLR,,0.66,WeatherDisplay:10.37,2013-01-14 22:15:00,
2013-01-14 13:20:00,38.0,36.7,29.71,North,355,0.0,0.0,95,0.01,CLR,,0.66,WeatherDisplay:10.37,2013-01-14 22:20:00,
2013-01-14 13:25:00,38.0,36.7,29.72,North,356,0.0,0.0,95,0.01,CLR,,0.66,WeatherDisplay:10.37,2013-01-14 22:25:00,
2013-01-14 13:30:00,38.0,36.7,29.72,North,356,0.0,0.0,95,0.01,CLR,,0.66,WeatherDisplay:10.37,2013-01-14 22:30:00,
2013-01-14 13:35:00,38.0,36.7,29.72,North,356,0.0,0.0,95,0.01,CLR,,0.66,WeatherDisplay:10.37,2013-01-14 22:35:00,
2013-01-14 13:40:00,38.0,36.7,29.72,North,355,0.0,0.0,95,0.00,CLR,,0.66,WeatherDisplay:10.37,2013-01-14 22:40:00,
2013-01-14 13:45:00,38.1,36.8,29.73,North,355,0.0,0.0,95,0.00,CLR,,0.66,WeatherDisplay:10.37,2013-01-14 22:45:00,
2013-01-14 13:50:00,38.1,36.8,29.72,North,356,0.0,0.0,95,0.00,CLR,,0.66,WeatherDisplay:10.37,2013-01-14 22:50:00,
2013-01-14 13:55:00,38.2,36.9,29.73,North,356,0.0,0.0,95,0.00,CLR,,0.66,WeatherDisplay:10.37,2013-01-14 22:55:00,
2013-01-14 14:00:00,38.2,36.9,29.72,North,356,0.0,0.0,95,0.00,CLR,,0.66,WeatherDisplay:10.37,2013-01-14 23:00:00,
2013-01-14 14:05:00,38.2,36.9,29.72,North,356,0.0,0.0,95,0.01,RA,,0.67,WeatherDisplay:10.37,2013-01-14 23:05:00,
2013-01-14 14:10:00,38.3,37.0,29.72,North,356,0.0,0.0,95,0.01,RA,,0.67,WeatherDisplay:10.37,2013-01-14 23:10:00,
2013-01-14 14:15:00,38.4,37.1,29.72,North,355,0.0,0.0,95,0.01,,,0.67,WeatherDisplay:10.37,2013-01-14 23:15:00,
2013-01-14 14:20:00,38.4,37.1,29.71,North,355,0.0,0.0,95,0.01,CLR,,0.67,WeatherDisplay:10.37,2013-01-14 23:20:00,
2013-01-14 14:25:00,38.6,37.3,29.72,North,356,0.0,0.0,95,0.01,CLR,,0.67,WeatherDisplay:10.37,2013-01-14 23:25:00,
2013-01-14 14:30:00,38.6,37.3,29.73,North,356,0.0,0.0,95,0.01,CLR,,0.67,WeatherDisplay:10.37,2013-01-14 23:30:00,
2013-01-14 14:35:00,38.8,37.5,29.74,North,356,0.0,0.0,95,0.01,CLR,,0.67,WeatherDisplay:10.37,2013-01-14 23:35:00,
2013-01-14 14:40:00,38.9,37.3,29.74,North,356,0.0,0.0,94,0.01,CLR,,0.67,WeatherDisplay:10.37,2013-01-14 23:40:00,
2013-01-14 14:45:00,39.3,37.4,29.74,North,356,0.0,0.0,93,0.01,CLR,,0.67,WeatherDisplay:10.37,2013-01-14 23:45:00,
2013-01-14 14:50:00,39.6,37.7,29.73,North,356,0.0,0.0,93,0.01,CLR,,0.67,WeatherDisplay:10.37,2013-01-14 23:50:00,
2013-01-14 14:55:00,39.5,37.4,29.74,North,355,0.0,0.0,92,0.01,CLR,,0.67,WeatherDisplay:10.37,2013-01-14 23:55:00,
2013-01-14 15:00:00,39.5,37.6,29.74,North,356,0.0,0.0,93,0.01,CLR,,0.67,WeatherDisplay:10.37,2013-01-15 00:00:00,
2013-01-14 15:05:00,39.6,37.7,29.73,North,355,0.0,0.0,93,0.00,CLR,,0.67,WeatherDisplay:10.37,2013-01-15 00:05:00,
2013-01-14 15:10:00,39.7,37.8,29.75,North,356,0.0,0.0,93,0.00,CLR,,0.67,WeatherDisplay:10.37,2013-01-15 00:10:00,
2013-01-14 15:15:00,39.7,37.6,29.74,North,356,0.0,0.0,92,0.00,CLR,,0.67,WeatherDisplay:10.37,2013-01-15 00:15:00,
2013-01-14 15:20:00,39.8,37.7,29.74,North,356,0.0,0.0,92,0.00,CLR,,0.67,WeatherDisplay:10.37,2013-01-15 00:20:00,
2013-01-14 15:25:00,39.8,37.7,29.75,North,355,0.0,0.0,92,0.00,CLR,,0.67,WeatherDisplay:10.37,2013-01-15 00:25:00,
2013-01-14 15:30:00,39.8,37.7,29.75,North,355,0.0,0.0,92,0.00,CLR,,0.67,WeatherDisplay:10.37,2013-01-15 00:30:00,
2013-01-14 15:35:00,39.7,37.3,29.75,North,355,0.0,0.0,91,0.00,CLR,,0.67,WeatherDisplay:10.37,2013-01-15 00:35:00,
2013-01-14 15:40:00,40.0,37.6,29.75,North,356,0.0,0.0,91,0.00,CLR,,0.67,WeatherDisplay:10.37,2013-01-15 00:40:00,
2013-01-14 15:45:00,40.1,37.4,29.76,North,356,0.0,0.0,90,0.00,CLR,,0.67,WeatherDisplay:10.37,2013-01-15 00:45:00,
2013-01-14 15:50:00,40.1,37.4,29.76,North,356,0.0,0.0,90,0.00,CLR,,0.67,WeatherDisplay:10.37,2013-01-15 00:50:00,
2013-01-14 15:55:00,39.9,37.2,29.76,North,355,0.0,0.0,90,0.00,CLR,,0.67,WeatherDisplay:10.37,2013-01-15 00:55:00,
2013-01-14 16:00:00,39.8,37.1,29.76,North,356,0.0,0.0,90,0.00,CLR,,0.67,WeatherDisplay:10.37,2013-01-15 01:00:00,
2013-01-14 16:05:00,39.8,37.1,29.76,North,356,0.0,0.0,90,0.00,CLR,,0.67,WeatherDisplay:10.37,2013-01-15 01:05:00,
2013-01-14 16:10:00,39.9,37.5,29.76,North,355,0.0,0.0,91,0.00,CLR,,0.67,WeatherDisplay:10.37,2013-01-15 01:10:00,
2013-01-14 16:15:00,39.8,37.1,29.76,North,356,0.0,0.0,90,0.00,CLR,,0.67,WeatherDisplay:10.37,2013-01-15 01:15:00,
2013-01-14 16:20:00,39.6,37.2,29.77,North,356,0.0,0.0,91,0.00,CLR,,0.67,WeatherDisplay:10.37,2013-01-15 01:20:00,
2013-01-14 16:25:00,39.3,36.9,29.76,North,355,0.0,0.0,91,0.00,CLR,,0.67,WeatherDisplay:10.37,2013-01-15 01:25:00,
2013-01-14 16:30:00,38.9,36.5,29.76,North,355,0.0,0.0,91,0.00,CLR,,0.67,WeatherDisplay:10.37,2013-01-15 01:30:00,
2013-01-14 16:35:00,38.6,36.5,29.76,North,356,0.0,0.0,92,0.00,CLR,,0.67,WeatherDisplay:10.37,2013-01-15 01:35:00,
2013-01-14 16:40:00,38.3,36.5,29.76,North,355,0.0,0.0,93,0.00,CLR,,0.67,WeatherDisplay:10.37,2013-01-15 01:40:00,
2013-01-14 16:45:00,38.0,36.2,29.76,North,356,0.0,0.0,93,0.00,CLR,,0.67,WeatherDisplay:10.37,2013-01-15 01:45:00,
2013-01-14 16:50:00,37.8,36.0,29.77,North,355,0.0,0.0,93,0.00,CLR,,0.67,WeatherDisplay:10.37,2013-01-15 01:50:00,
2013-01-14 16:55:00,37.7,36.1,29.77,North,356,0.0,0.0,94,0.00,CLR,,0.67,WeatherDisplay:10.37,2013-01-15 01:55:00,
2013-01-14 17:00:00,37.6,36.0,29.78,North,356,0.0,0.0,94,0.00,CLR,,0.67,WeatherDisplay:10.37,2013-01-15 02:00:00,
2013-01-14 17:05:00,37.5,35.9,29.78,North,355,0.0,0.0,94,0.00,CLR,,0.67,WeatherDisplay:10.37,2013-01-15 02:05:00,
2013-01-14 17:10:00,37.6,36.0,29.79,North,356,0.0,0.0,94,0.00,CLR,,0.67,WeatherDisplay:10.37,2013-01-15 02:10:00,
2013-01-14 17:15:00,37.6,36.0,29.79,North,356,0.0,0.0,94,0.00,CLR,,0.67,WeatherDisplay:10.37,2013-01-15 02:15:00,
2013-01-14 17:20:00,37.4,35.8,29.79,North,356,0.0,0.0,94,0.00,CLR,,0.67,WeatherDisplay:10.37,2013-01-15 02:20:00,
2013-01-14 17:25:00,37.1,35.5,29.79,North,355,0.0,0.0,94,0.00,CLR,,0.67,WeatherDisplay:10.37,2013-01-15 02:25:00,
2013-01-14 17:30:00,36.8,35.2,29.79,North,356,0.0,0.0,94,0.00,CLR,,0.67,WeatherDisplay:10.37,2013-01-15 02:30:00,
2013-01-14 17:35:00,36.6,35.3,29.80,North,356,0.0,0.0,95,0.00,CLR,,0.67,WeatherDisplay:10.37,2013-01-15 02:35:00,
2013-01-14 17:40:00,36.7,35.4,29.80,North,355,0.0,0.0,95,0.00,CLR,,0.67,WeatherDisplay:10.37,2013-01-15 02:40:00,
2013-01-14 17:45:00,36.6,35.3,29.81,North,355,0.0,0.0,95,0.00,CLR,,0.67,WeatherDisplay:10.37,2013-01-15 02:45:00,
2013-01-14 17:50:00,36.4,35.1,29.81,North,356,0.0,0.0,95,0.00,CLR,,0.67,WeatherDisplay:10.37,2013-01-15 02:50:00,
2013-01-14 17:55:00,36.1,34.8,29.82,North,356,0.0,0.0,95,0.00,CLR,,0.67,WeatherDisplay:10.37,2013-01-15 02:55:00,
2013-01-14 18:00:00,36.0,34.7,29.81,North,356,0.0,0.0,95,0.00,CLR,,0.67,WeatherDisplay:10.37,2013-01-15 03:00:00,
2013-01-14 18:05:00,36.0,34.7,29.82,North,355,0.0,0.0,95,0.00,CLR,,0.67,WeatherDisplay:10.37,2013-01-15 03:05:00,
2013-01-14 18:10:00,36.1,34.8,29.82,North,356,0.0,0.0,95,0.00,CLR,,0.67,WeatherDisplay:10.37,2013-01-15 03:10:00,
2013-01-14 18:15:00,35.9,34.6,29.82,North,356,0.0,0.0,95,0.00,CLR,,0.67,WeatherDisplay:10.37,2013-01-15 03:15:00,
2013-01-14 18:20:00,35.9,34.6,29.83,North,355,0.0,0.0,95,0.00,CLR,,0.67,WeatherDisplay:10.37,2013-01-15 03:20:00,
2013-01-14 18:25:00,35.7,34.4,29.83,North,356,0.0,0.0,95,0.00,CLR,,0.67,WeatherDisplay:10.37,2013-01-15 03:25:00,
2013-01-14 18:30:00,35.5,34.2,29.83,North,356,0.0,0.0,95,0.00,CLR,,0.67,WeatherDisplay:10.37,2013-01-15 03:30:00,
2013-01-14 18:35:00,35.4,34.1,29.83,North,356,0.0,0.0,95,0.00,CLR,,0.67,WeatherDisplay:10.37,2013-01-15 03:35:00,
2013-01-14 18:40:00,35.5,34.2,29.83,North,355,0.0,0.0,95,0.00,CLR,,0.67,WeatherDisplay:10.37,2013-01-15 03:40:00,
2013-01-14 18:45:00,35.7,34.4,29.83,North,355,0.0,0.0,95,0.00,CLR,,0.67,WeatherDisplay:10.37,2013-01-15 03:45:00,
2013-01-14 18:50:00,35.8,34.5,29.83,North,356,0.0,0.0,95,0.00,CLR,,0.67,WeatherDisplay:10.37,2013-01-15 03:50:00,
2013-01-14 18:55:00,35.9,34.6,29.83,North,355,0.0,0.0,95,0.00,CLR,,0.67,WeatherDisplay:10.37,2013-01-15 03:55:00,
2013-01-14 19:00:00,35.7,34.4,29.84,North,355,0.0,0.0,95,0.00,CLR,,0.67,WeatherDisplay:10.37,2013-01-15 04:00:00,
2013-01-14 19:05:00,35.5,34.2,29.83,North,356,0.0,0.0,95,0.00,CLR,,0.67,WeatherDisplay:10.37,2013-01-15 04:05:00,
2013-01-14 19:10:00,35.7,34.4,29.83,North,356,0.0,0.0,95,0.00,CLR,,0.67,WeatherDisplay:10.37,2013-01-15 04:10:00,
2013-01-14 19:15:00,36.3,35.0,29.83,North,356,0.0,0.0,95,0.00,CLR,,0.67,WeatherDisplay:10.37,2013-01-15 04:15:00,
2013-01-14 19:20:00,36.5,35.5,29.83,North,355,0.0,0.0,96,0.00,CLR,,0.67,WeatherDisplay:10.37,2013-01-15 04:20:00,
2013-01-14 19:25:00,36.4,35.4,29.83,North,356,0.0,0.0,96,0.00,CLR,,0.67,WeatherDisplay:10.37,2013-01-15 04:25:00,
2013-01-14 19:30:00,35.6,34.3,29.83,North,355,0.0,0.0,95,0.00,CLR,,0.67,WeatherDisplay:10.37,2013-01-15 04:30:00,
2013-01-14 19:35:00,34.9,33.6,29.84,North,355,0.0,0.0,95,0.00,CLR,,0.67,WeatherDisplay:10.37,2013-01-15 04:35:00,
2013-01-14 19:40:00,34.7,33.4,29.83,North,355,0.0,0.0,95,0.00,CLR,,0.67,WeatherDisplay:10.37,2013-01-15 04:40:00,
2013-01-14 19:45:00,34.6,33.3,29.84,North,355,0.0,0.0,95,0.00,CLR,,0.67,WeatherDisplay:10.37,2013-01-15 04:45:00,
2013-01-14 19:50:00,34.4,33.1,29.84,North,355,0.0,0.0,95,0.00,CLR,,0.67,WeatherDisplay:10.37,2013-01-15 04:50:00,
2013-01-14 19:55:00,34.4,33.1,29.84,North,355,0.0,0.0,95,0.00,CLR,,0.67,WeatherDisplay:10.37,2013-01-15 04:55:00,
2013-01-14 20:00:00,34.3,33.0,29.85,North,355,0.0,0.0,95,0.00,CLR,,0.67,WeatherDisplay:10.37,2013-01-15 05:00:00,
2013-01-14 20:05:00,34.3,33.0,29.85,North,356,0.0,0.0,95,0.00,CLR,,0.67,WeatherDisplay:10.37,2013-01-15 05:05:00,
2013-01-14 20:10:00,34.3,33.0,29.85,North,356,0.0,0.0,95,0.00,CLR,,0.67,WeatherDisplay:10.37,2013-01-15 05:10:00,
2013-01-14 20:15:00,34.4,33.1,29.85,North,356,0.0,0.0,95,0.00,CLR,,0.67,WeatherDisplay:10.37,2013-01-15 05:15:00,
2013-01-14 20:20:00,34.4,33.1,29.85,North,355,0.0,0.0,95,0.00,CLR,,0.67,WeatherDisplay:10.37,2013-01-15 05:20:00,
2013-01-14 20:25:00,34.2,32.9,29.85,North,355,0.0,0.0,95,0.00,CLR,,0.67,WeatherDisplay:10.37,2013-01-15 05:25:00,
2013-01-14 20:30:00,34.0,32.7,29.85,North,356,0.0,0.0,95,0.00,CLR,,0.67,WeatherDisplay:10.37,2013-01-15 05:30:00,
2013-01-14 20:35:00,34.0,32.7,29.86,North,355,0.0,0.0,95,0.00,CLR,,0.67,WeatherDisplay:10.37,2013-01-15 05:35:00,
2013-01-14 20:40:00,33.9,32.6,29.86,North,355,0.0,0.0,95,0.00,CLR,,0.67,WeatherDisplay:10.37,2013-01-15 05:40:00,
2013-01-14 20:45:00,33.8,32.5,29.86,North,356,0.0,0.0,95,0.00,CLR,,0.67,WeatherDisplay:10.37,2013-01-15 05:45:00,
2013-01-14 20:50:00,33.6,32.3,29.86,North,356,0.0,0.0,95,0.00,CLR,,0.67,WeatherDisplay:10.37,2013-01-15 05:50:00,
2013-01-14 20:55:00,33.6,32.3,29.87,North,356,0.0,0.0,95,0.00,CLR,,0.67,WeatherDisplay:10.37,2013-01-15 05:55:00,
2013-01-14 21:00:00,34.1,32.8,29.87,North,356,0.0,0.0,95,0.00,CLR,,0.67,WeatherDisplay:10.37,2013-01-15 06:00:00,
2013-01-14 21:05:00,34.4,33.4,29.87,North,356,0.0,0.0,96,0.00,CLR,,0.67,WeatherDisplay:10.37,2013-01-15 06:05:00,
2013-01-14 21:10:00,34.2,33.2,29.88,North,355,0.0,0.0,96,0.00,CLR,,0.67,WeatherDisplay:10.37,2013-01-15 06:10:00,
2013-01-14 21:15:00,33.6,32.3,29.88,North,356,0.0,0.0,95,0.00,CLR,,0.67,WeatherDisplay:10.37,2013-01-15 06:15:00,
2013-01-14 21:20:00,33.2,31.9,29.89,North,355,0.0,0.0,95,0.00,CLR,,0.67,WeatherDisplay:10.37,2013-01-15 06:20:00,
2013-01-14 21:25:00,33.0,31.7,29.89,North,355,0.0,0.0,95,0.00,CLR,,0.67,WeatherDisplay:10.37,2013-01-15 06:25:00,
2013-01-14 21:30:00,33.2,32.2,29.88,North,356,0.0,0.0,96,0.00,CLR,,0.67,WeatherDisplay:10.37,2013-01-15 06:30:00,
2013-01-14 21:35:00,33.2,32.2,29.88,North,355,0.0,0.0,96,0.00,CLR,,0.67,WeatherDisplay:10.37,2013-01-15 06:35:00,
2013-01-14 21:40:00,33.1,32.1,29.89,North,355,0.0,0.0,96,0.00,CLR,,0.67,WeatherDisplay:10.37,2013-01-15 06:40:00,
2013-01-14 21:45:00,33.2,32.2,29.88,North,355,0.0,0.0,96,0.00,CLR,,0.67,WeatherDisplay:10.37,2013-01-15 06:45:00,
2013-01-14 21:50:00,33.2,32.2,29.89,North,355,0.0,0.0,96,0.00,CLR,,0.67,WeatherDisplay:10.37,2013-01-15 06:50:00,
2013-01-14 21:55:00,33.0,32.0,29.89,North,356,0.0,0.0,96,0.00,CLR,,0.67,WeatherDisplay:10.37,2013-01-15 06:55:00,
2013-01-14 22:00:00,32.6,31.3,29.90,North,356,0.0,0.0,95,0.00,CLR,,0.67,WeatherDisplay:10.37,2013-01-15 07:00:00,
2013-01-14 22:05:00,32.3,31.0,29.91,North,356,0.0,0.0,95,0.00,CLR,,0.67,WeatherDisplay:10.37,2013-01-15 07:05:00,
2013-01-14 22:10:00,32.2,30.9,29.90,North,355,0.0,0.0,95,0.00,CLR,,0.67,WeatherDisplay:10.37,2013-01-15 07:10:00,
2013-01-14 22:15:00,32.4,31.4,29.90,North,356,0.0,0.0,96,0.00,CLR,,0.67,WeatherDisplay:10.37,2013-01-15 07:15:00,
2013-01-14 22:20:00,32.3,31.0,29.91,North,356,0.0,0.0,95,0.00,CLR,,0.67,WeatherDisplay:10.37,2013-01-15 07:20:00,
2013-01-14 22:25:00,32.1,30.8,29.90,North,355,0.0,0.0,95,0.00,CLR,,0.67,WeatherDisplay:10.37,2013-01-15 07:25:00,
2013-01-14 22:30:00,32.3,31.0,29.89,North,355,0.0,0.0,95,0.01,RA,,0.68,WeatherDisplay:10.37,2013-01-15 07:30:00,
2013-01-14 22:35:00,32.3,31.0,29.89,North,356,0.0,0.0,95,0.01,RA,,0.68,WeatherDisplay:10.37,2013-01-15 07:35:00,
2013-01-14 22:40:00,32.0,31.0,29.90,North,356,0.0,0.0,96,0.01,CLR,,0.68,WeatherDisplay:10.37,2013-01-15 07:40:00,
2013-01-14 22:45:00,31.8,30.5,29.90,North,355,0.0,0.0,95,0.01,CLR,,0.68,WeatherDisplay:10.37,2013-01-15 07:45:00,
2013-01-14 22:50:00,31.8,30.5,29.90,North,355,0.0,0.0,95,0.01,CLR,,0.68,WeatherDisplay:10.37,2013-01-15 07:50:00,
2013-01-14 22:55:00,32.0,31.0,29.90,North,356,0.0,0.0,96,0.01,CLR,,0.68,WeatherDisplay:10.37,2013-01-15 07:55:00,
2013-01-14 23:00:00,32.3,31.3,29.90,North,356,0.0,0.0,96,0.01,CLR,,0.68,WeatherDisplay:10.37,2013-01-15 08:00:00,
2013-01-14 23:05:00,32.5,31.5,29.91,North,355,0.0,0.0,96,0.01,CLR,,0.68,WeatherDisplay:10.37,2013-01-15 08:05:00,
2013-01-14 23:10:00,32.4,31.4,29.91,North,355,0.0,0.0,96,0.01,CLR,,0.68,WeatherDisplay:10.37,2013-01-15 08:10:00,
2013-01-14 23:15:00,32.3,31.3,29.91,North,355,0.0,0.0,96,0.01,CLR,,0.68,WeatherDisplay:10.37,2013-01-15 08:15:00,
2013-01-14 23:20:00,32.1,31.1,29.91,North,355,0.0,0.0,96,0.01,CLR,,0.68,WeatherDisplay:10.37,2013-01-15 08:20:00,
2013-01-14 23:25:00,31.8,30.5,29.91,North,355,0.0,0.0,95,0.01,CLR,,0.68,WeatherDisplay:10.37,2013-01-15 08:25:00,
2013-01-14 23:30:00,31.9,30.6,29.90,North,356,0.0,0.0,95,0.00,CLR,,0.68,WeatherDisplay:10.37,2013-01-15 08:30:00,
2013-01-14 23:35:00,31.7,30.4,29.91,North,356,0.0,0.0,95,0.00,CLR,,0.68,WeatherDisplay:10.37,2013-01-15 08:35:00,
2013-01-14 23:40:00,31.5,30.2,29.92,North,356,0.0,0.0,95,0.00,CLR,,0.68,WeatherDisplay:10.37,2013-01-15 08:40:00,
2013-01-14 23:45:00,31.5,30.5,29.92,North,356,0.0,0.0,96,0.00,CLR,,0.68,WeatherDisplay:10.37,2013-01-15 08:45:00,
2013-01-14 23:50:00,31.5,30.5,29.92,North,356,0.0,0.0,96,0.00,CLR,,0.68,WeatherDisplay:10.37,2013-01-15 08:50:00,
2013-01-14 23:55:00,31.5,30.5,29.92,North,355,0.0,0.0,96,0.00,CLR,,0.68,WeatherDisplay:10.37,2013-01-15 08:55:00,